Tracking 21611 objects as of 21-Oct-2020
HD Live streaming from Space Station
objects crossing your sky now

COSMOS 1806

Track COSMOS 1806 now!
COSMOS 1806 is classified as:


NORAD ID: 17213
Int'l Code: 1986-098A
Perigee: 6,328.6 km
Apogee: 34,043.4 km
Inclination: 68.7 °
Period: 717.8 minutes
Semi major axis: 26556 km
RCS: 14.9345 m2 (large)
Launch date: December 12, 1986
Source: Commonwealth of Independent States (former USSR) (CIS)
Launch site: PLESETSK MISSILE AND SPACE COMPLEX (PKMTR)
aabbcc
Your satellite tracking list
Your tracking list is empty




NASA's NSSDC Master Catalog

Two Line Element Set (TLE):
1 17213U 86098A   20294.56373633 +.00000520 +00000-0 +00000-0 0  9995
2 17213 068.6822 230.1440 5217989 130.2239 025.4553 02.00601656247916
Source of the keplerian elements: AFSPC